Regional Weather Roundup
Issued by NWS

Home | Current Version | Previous Version | Text Only | Print | Product List | Glossary Off
Versions: 1 2 3 4 5 6 7 8 9 10 11 12 13 14 15 16 17 18 19 20 21 22 23 24 25 26 27 28 29 30 31 32 33 34 35 36 37 38 39 40 41 42 43 44 45 46 47 48 49 50

000
ASUS43 KBIS 040602
RWRND

NORTH DAKOTA REGIONAL WEATHER ROUNDUP
NATIONAL WEATHER SERVICE BISMARCK ND
100 AM CDT WED MAY 04 2016

NOTE: "FAIR" INDICATES FEW OR NO CLOUDS BELOW 12,000 FEET WITH NO
SIGNIFICANT WEATHER AND/OR OBSTRUCTIONS TO VISIBILITY.


NDZ001>003-009>011-017-040700-
NORTHWEST NORTH DAKOTA

CITY           SKY/WX    TMP DP  RH WIND       PRES   REMARKS
WILLISTON      CLEAR     47  40  76 CALM      30.06R
6HR MIN TEMP:  47; 6HR MAX TEMP:  79;

MINOT          CLEAR     52  28  39 SE5       30.06S
MINOT AFB      CLEAR     46  28  49 S7        30.05S
$$

NDZ018>021-031>035-040>046-040700-
SOUTHWEST NORTH DAKOTA

CITY           SKY/WX    TMP DP  RH WIND       PRES   REMARKS
BISMARCK       CLEAR     46  32  58 E3        30.08R
6HR MIN TEMP:  45; 6HR MAX TEMP:  73;

DICKINSON      CLEAR     47  36  65 S6        30.07S
GARRISON         N/A     49  30  48 CALM      30.07R
6HR MIN TEMP:  47; 6HR MAX TEMP:  74;

HETTINGER ARPT CLEAR     45  36  70 NW3       30.10S
$$

NDZ004>008-012>016-024-026-027-054-040700-
NORTHEAST NORTH DAKOTA

CITY           SKY/WX    TMP DP  RH WIND       PRES   REMARKS
GRAND FORKS    CLEAR     38  30  73 NW9       30.02R
GRND FRKS AFB  CLEAR     45  32  60 N8        30.03R
DEVILS LAKE    CLEAR     45  33  63 N8        30.06R
$$

NDZ022-023-025-028>030-036>039-047>053-040700-
SOUTHEAST NORTH DAKOTA

CITY           SKY/WX    TMP DP  RH WIND       PRES   REMARKS
FARGO          CLEAR     50  29  44 N13       29.99R
6HR MIN TEMP:  50; 6HR MAX TEMP:  66;

JAMESTOWN      CLEAR     42  31  64 N8        30.04R
$$





USA.gov is the U.S. government's official web portal to all federal, state and local government web resources and services.